Weather History for Sparta, TN

Change the Weather History Date:

Tuesday, November 20, 2012

  Actual Average (KCSV) Record (KCSV)
Temperature  
Mean Temperature 52 °F 46 °F  
Max Temperature 66 °F 55 °F 73 °F (1979)
Min Temperature 37 °F 37 °F 18 °F (1969)
Degree Days  
Heating Degree Days 14    
Month to date heating degree days  
Since 1 July heating degree days  
Cooling Degree Days 0    
Month to date cooling degree days  
Year to date cooling degree days  
Growing Degree Days 2 (Base 50)    
Moisture  
Dew Point 44 °F    
Average Humidity 75    
Maximum Humidity 100    
Minimum Humidity 46    
Precipitation  
Precipitation 0.00 in 0.19 in 1.09 in (1983)
Month to date precipitation 3.15  
Year to date precipitation 48.19  
Sea Level Pressure  
Sea Level Pressure 30.13 in    
Wind  
Wind Speed 1 mph ()    
Max Wind Speed 7 mph    
Max Gust Speed -    
Visibility 10.0 miles    
Events      
T = Trace of Precipitation, MM = Missing Value Source: Averaged Metar Reports

Daily Weather History Graph

Daily Weather History Graph

Search for Another Location

Airport:

Trip Planner

Search our weather history database for the weather conditions in past years. The results will help you decide how hot, cold, wet, or windy it might be!

Date:

Astronomy

Nov. 20, 2012 Rise Set
Actual Time 6:24 AM CST 4:31 PM CST
Civil Twilight 5:56 AM CST 4:58 PM CST
Nautical Twilight 5:25 AM CST 5:30 PM CST
Astronomical Twilight 4:54 AM CST 6:00 PM CST
Moon 12:04 PM CST (11/20) 11:55 PM CST (11/20)
Length of Visible Light 11h 02m
Length of Day
10h 07m
First Quarter, 51% of the Moon is Illuminated
Nov 20
First Quarter
Nov 28
Full
Dec 6
Last Quarter
Dec 13
New
Dec 19
First Quarter

Hourly Weather History & Observations

Time (CST) Temp. Dew Point Humidity Pressure Visibility Wind Dir Wind Speed Gust Speed Precip Events Conditions
12:15 AM 41.0 °F 39.2 °F 93% 30.19 in 10.0 mi Calm Calm - N/A   Partly Cloudy
12:35 AM 41.0 °F 39.2 °F 93% 30.19 in 10.0 mi Calm Calm - N/A   Clear
12:55 AM 42.8 °F 39.2 °F 87% 30.18 in 10.0 mi Calm Calm - N/A   Mostly Cloudy
1:15 AM 39.2 °F 39.2 °F 100% 30.18 in 10.0 mi Calm Calm - N/A   Scattered Clouds
1:35 AM 39.2 °F 39.2 °F 100% 30.18 in 10.0 mi Calm Calm - N/A   Partly Cloudy
1:55 AM 41.0 °F 39.2 °F 93% 30.18 in 10.0 mi Calm Calm - N/A   Mostly Cloudy
2:15 AM 41.0 °F 39.2 °F 93% 30.18 in 10.0 mi Calm Calm - N/A   Mostly Cloudy
2:35 AM 41.0 °F 39.2 °F 93% 30.18 in 10.0 mi Calm Calm - N/A   Scattered Clouds
6:15 AM 41.0 °F 39.2 °F 93% 30.17 in 10.0 mi Calm Calm - N/A   Partly Cloudy
6:35 AM 37.4 °F 37.4 °F 100% 30.18 in 10.0 mi Calm Calm - N/A   Clear
6:55 AM 37.4 °F 37.4 °F 100% 30.18 in 10.0 mi Calm Calm - N/A   Clear
7:15 AM 37.4 °F 37.4 °F 100% 30.19 in 10.0 mi Calm Calm - N/A   Clear
7:35 AM 42.8 °F 41.0 °F 93% 30.19 in 10.0 mi Calm Calm - N/A   Clear
7:55 AM 46.4 °F 39.2 °F 76% 30.19 in 10.0 mi Calm Calm - N/A   Clear
8:15 AM 48.2 °F 42.8 °F 82% 30.19 in 10.0 mi Calm Calm - N/A   Clear
8:35 AM 51.8 °F 42.8 °F 71% 30.19 in 10.0 mi South 3.5 mph - N/A   Clear
8:55 AM 53.6 °F 42.8 °F 67% 30.19 in 10.0 mi South 3.5 mph - N/A   Clear
9:15 AM 55.4 °F 42.8 °F 63% 30.19 in 10.0 mi South 3.5 mph - N/A   Clear
9:35 AM 55.4 °F 44.6 °F 67% 30.19 in 10.0 mi Calm Calm - N/A   Clear
9:55 AM 57.2 °F 44.6 °F 63% 30.18 in 10.0 mi SW 4.6 mph - N/A   Clear
10:15 AM 60.8 °F 44.6 °F 55% 30.18 in 10.0 mi Calm Calm - N/A   Clear
10:35 AM 60.8 °F 44.6 °F 55% 30.17 in 10.0 mi Calm Calm - N/A   Clear
10:55 AM 62.6 °F 46.4 °F 55% 30.16 in 10.0 mi WNW 4.6 mph - N/A   Clear
11:15 AM 62.6 °F 46.4 °F 55% 30.15 in 10.0 mi West 4.6 mph - N/A   Clear
11:35 AM 62.6 °F 46.4 °F 55% 30.14 in 10.0 mi West 4.6 mph - N/A   Clear
11:55 AM 64.4 °F 46.4 °F 52% 30.13 in 10.0 mi Variable 3.5 mph - N/A   Scattered Clouds
12:15 PM 64.4 °F 46.4 °F 52% 30.12 in 10.0 mi WSW 5.8 mph - N/A   Partly Cloudy
12:35 PM 64.4 °F 44.6 °F 49% 30.11 in 10.0 mi West 6.9 mph - N/A   Partly Cloudy
12:55 PM 64.4 °F 44.6 °F 49% 30.11 in 10.0 mi WNW 4.6 mph - N/A   Unknown
1:15 PM 64.4 °F 44.6 °F 49% 30.10 in 10.0 mi West 3.5 mph - N/A   Mostly Cloudy
1:35 PM 66.2 °F 44.6 °F 46% 30.09 in 10.0 mi Variable 3.5 mph - N/A   Clear
1:55 PM 64.4 °F 46.4 °F 52% 30.08 in 10.0 mi Variable 3.5 mph - N/A   Clear
2:15 PM 64.4 °F 44.6 °F 49% 30.08 in 10.0 mi Calm Calm - N/A   Clear
2:35 PM 62.6 °F 44.6 °F 52% 30.08 in 10.0 mi South 4.6 mph - N/A   Mostly Cloudy
2:55 PM 64.4 °F 44.6 °F 49% 30.08 in 10.0 mi Calm Calm - N/A   Overcast
3:15 PM 64.4 °F 44.6 °F 49% 30.08 in 10.0 mi Calm Calm - N/A   Overcast
3:35 PM 64.4 °F 44.6 °F 49% 30.08 in 10.0 mi Calm Calm - N/A   Mostly Cloudy
3:55 PM 62.6 °F 46.4 °F 55% 30.08 in 10.0 mi Calm Calm - N/A   Mostly Cloudy
4:15 PM 57.2 °F 46.4 °F 67% 30.08 in 10.0 mi Calm Calm - N/A   Mostly Cloudy
4:35 PM 57.2 °F 46.4 °F 67% 30.08 in 10.0 mi Calm Calm - N/A   Overcast
4:55 PM 55.4 °F 46.4 °F 72% 30.08 in 10.0 mi Calm Calm - N/A   Overcast
5:15 PM 53.6 °F 46.4 °F 77% 30.08 in 10.0 mi Calm Calm - N/A   Mostly Cloudy
5:35 PM 51.8 °F 46.4 °F 82% 30.09 in 10.0 mi Calm Calm - N/A   Mostly Cloudy
5:55 PM 53.6 °F 44.6 °F 72% 30.09 in 10.0 mi Calm Calm - N/A   Mostly Cloudy
6:15 PM 51.8 °F 46.4 °F 82% 30.09 in 10.0 mi Calm Calm - N/A   Overcast
6:35 PM 51.8 °F 46.4 °F 82% 30.10 in 10.0 mi Calm Calm - N/A   Overcast
6:55 PM 51.8 °F 48.2 °F 88% 30.10 in 10.0 mi Calm Calm - N/A   Overcast
7:15 PM 53.6 °F 46.4 °F 77% 30.11 in 10.0 mi Calm Calm - N/A   Overcast
7:35 PM 51.8 °F 46.4 °F 82% 30.11 in 10.0 mi Calm Calm - N/A   Overcast
7:55 PM 51.8 °F 46.4 °F 82% 30.12 in 10.0 mi Calm Calm - N/A   Overcast
8:15 PM 53.6 °F 48.2 °F 82% 30.12 in 10.0 mi Calm Calm - N/A   Mostly Cloudy
8:35 PM 51.8 °F 48.2 °F 88% 30.12 in 10.0 mi Calm Calm - N/A   Mostly Cloudy
8:55 PM 51.8 °F 48.2 °F 88% 30.12 in 10.0 mi Calm Calm - N/A   Mostly Cloudy
9:15 PM 50.0 °F 46.4 °F 87% 30.12 in 10.0 mi Calm Calm - N/A   Mostly Cloudy
9:35 PM 48.2 °F 46.4 °F 93% 30.12 in 10.0 mi Calm Calm - N/A   Mostly Cloudy
9:55 PM 48.2 °F 46.4 °F 93% 30.12 in 10.0 mi Calm Calm - N/A   Scattered Clouds
10:15 PM 48.2 °F 46.4 °F 93% 30.12 in 10.0 mi Calm Calm - N/A   Scattered Clouds
10:35 PM 46.4 °F 44.6 °F 93% 30.12 in 10.0 mi Calm Calm - N/A   Mostly Cloudy
10:55 PM 46.4 °F 44.6 °F 93% 30.12 in 10.0 mi Calm Calm - N/A   Mostly Cloudy
11:15 PM 48.2 °F 46.4 °F 93% 30.12 in 10.0 mi Calm Calm - N/A   Mostly Cloudy
11:35 PM 48.2 °F 46.4 °F 93% 30.11 in 10.0 mi Calm Calm - N/A   Overcast
11:55 PM 48.2 °F 46.4 °F 93% 30.12 in 10.0 mi Calm Calm - N/A   Overcast